Sherwood
DateTemperatureDew Point
05/09 - 06:00 PM87.3°51.8°
05/09 - 05:45 PM88.6°50.4°
05/09 - 05:30 PM90.1°48.9°
05/09 - 05:15 PM90.8°47.3°
05/09 - 05:00 PM91.0°47.8°
05/09 - 04:45 PM91.3°48.6°
05/09 - 04:30 PM91.7°49.9°
05/09 - 04:15 PM91.0°50.6°
05/09 - 04:00 PM91.5°52.0°
05/09 - 03:45 PM92.0°52.6°
05/09 - 03:30 PM91.1°52.1°
05/09 - 03:15 PM91.0°51.6°
05/09 - 03:00 PM91.4°52.4°
05/09 - 02:45 PM92.3°50.6°
05/09 - 02:30 PM91.4°53.2°
05/09 - 02:15 PM90.9°54.5°
05/09 - 02:00 PM90.7°55.3°
05/09 - 01:45 PM90.3°53.9°
05/09 - 01:30 PM89.4°55.2°
05/09 - 01:15 PM89.0°53.8°
05/09 - 01:00 PM87.8°53.5°
05/09 - 12:45 PM86.7°53.5°
05/09 - 12:30 PM86.1°54.8°
05/09 - 12:15 PM85.3°55.9°
05/09 - 12:00 PM85.1°58.0°
05/09 - 11:45 AM83.2°57.8°
05/09 - 11:30 AM82.6°58.1°
05/09 - 11:15 AM81.9°58.5°
05/09 - 11:00 AM80.9°58.5°
05/09 - 10:45 AM80.2°58.2°
05/09 - 10:30 AM79.8°57.8°
05/09 - 10:15 AM78.4°57.7°
05/09 - 10:00 AM77.9°57.7°
05/09 - 09:45 AM76.2°57.1°
05/09 - 09:30 AM74.9°55.9°
05/09 - 09:15 AM74.3°55.1°
05/09 - 09:00 AM72.9°54.3°
05/09 - 08:45 AM71.4°53.4°
05/09 - 08:30 AM70.3°52.6°
05/09 - 08:15 AM69.1°52.1°
05/09 - 08:00 AM67.9°51.8°
05/09 - 07:45 AM66.5°51.8°
05/09 - 07:30 AM64.5°51.6°
05/09 - 07:15 AM62.1°51.0°
05/09 - 07:00 AM59.2°51.1°
05/09 - 06:45 AM57.7°50.2°
05/09 - 06:30 AM56.9°50.3°
05/09 - 06:15 AM56.1°50.4°
05/09 - 06:00 AM55.1°50.9°
05/09 - 05:45 AM54.5°50.9°
05/09 - 05:30 AM54.1°50.6°
05/09 - 05:15 AM54.0°50.3°
05/09 - 05:00 AM54.5°50.3°
05/09 - 04:45 AM54.3°50.4°
05/09 - 04:30 AM53.2°50.3°
05/09 - 04:15 AM51.8°49.4°
05/09 - 04:00 AM51.3°48.4°
05/09 - 03:45 AM51.5°48.3°
05/09 - 03:30 AM52.0°48.3°
05/09 - 03:15 AM52.5°48.6°
05/09 - 03:00 AM52.8°48.8°
05/09 - 02:45 AM53.2°48.7°
05/09 - 02:30 AM53.7°48.8°
05/09 - 02:15 AM54.7°49.2°
05/09 - 02:00 AM55.4°49.4°
05/09 - 01:45 AM55.9°49.5°
05/09 - 01:30 AM56.9°49.7°
05/09 - 01:15 AM57.3°49.2°
05/09 - 01:00 AM57.8°49.5°
05/09 - 12:45 AM58.2°49.6°
05/09 - 12:30 AM58.8°49.5°
05/09 - 12:15 AM59.7°50.4°
05/09 - 12:00 AM60.7°50.4°
05/08 - 11:45 PM61.4°50.4°
05/08 - 11:30 PM61.4°49.9°
05/08 - 11:15 PM61.2°49.8°
05/08 - 11:00 PM61.3°50.0°
05/08 - 10:45 PM62.4°50.4°
05/08 - 10:30 PM63.7°50.3°
05/08 - 10:15 PM65.4°50.8°
05/08 - 10:00 PM66.5°49.8°
05/08 - 09:45 PM67.0°49.4°
05/08 - 09:30 PM67.1°49.2°
05/08 - 09:15 PM67.4°48.9°
05/08 - 09:00 PM67.6°47.9°
05/08 - 08:45 PM68.6°48.6°
05/08 - 08:30 PM69.5°47.9°
05/08 - 08:15 PM70.8°48.3°
05/08 - 08:00 PM72.7°48.6°
05/08 - 07:45 PM74.4°49.2°
05/08 - 07:30 PM76.6°50.4°
05/08 - 07:15 PM79.2°51.9°
05/08 - 07:00 PM81.0°50.5°
05/08 - 06:45 PM82.3°51.0°
05/08 - 06:30 PM83.8°50.7°
05/08 - 06:15 PM85.0°50.6°
05/08 - 06:00 PM86.3°51.1°
05/08 - 05:45 PM87.6°51.6°
05/08 - 05:30 PM88.8°53.1°
05/08 - 05:15 PM89.9°52.6°
05/08 - 05:00 PM90.9°52.6°
05/08 - 04:45 PM90.9°52.9°
05/08 - 04:30 PM90.8°52.9°
05/08 - 04:15 PM91.5°53.5°
05/08 - 04:00 PM92.7°55.5°
05/08 - 03:45 PM93.0°54.2°
05/08 - 03:30 PM92.9°55.7°
05/08 - 03:15 PM92.3°56.2°
05/08 - 03:00 PM93.4°57.5°
05/08 - 02:45 PM93.0°57.5°
05/08 - 02:30 PM91.7°57.1°
05/08 - 02:15 PM90.0°57.2°
05/08 - 02:00 PM90.6°56.6°
05/08 - 01:45 PM90.9°56.6°
05/08 - 01:30 PM89.2°55.7°
05/08 - 01:15 PM88.5°57.2°
05/08 - 01:00 PM87.8°58.3°
05/08 - 12:45 PM86.9°58.5°
05/08 - 12:30 PM85.9°57.9°
05/08 - 12:15 PM85.6°58.4°
05/08 - 12:00 PM83.8°58.0°
05/08 - 11:45 AM82.8°58.2°
05/08 - 11:30 AM82.9°59.2°
05/08 - 11:15 AM82.0°59.6°
05/08 - 11:00 AM80.7°59.7°
05/08 - 10:45 AM79.4°59.8°
05/08 - 10:30 AM78.2°59.5°
05/08 - 10:15 AM77.4°58.2°
05/08 - 10:00 AM76.6°58.1°
05/08 - 09:45 AM76.0°56.3°
05/08 - 09:30 AM74.9°57.0°
05/08 - 09:15 AM73.9°59.0°
05/08 - 09:00 AM72.9°59.0°
05/08 - 08:45 AM72.1°59.4°
05/08 - 08:30 AM70.7°59.0°
05/08 - 08:15 AM69.4°58.7°
05/08 - 08:00 AM68.3°58.2°
05/08 - 07:45 AM67.4°58.2°
05/08 - 07:30 AM66.0°58.6°
05/08 - 07:15 AM63.4°59.0°
05/08 - 07:00 AM61.4°58.6°
05/08 - 06:45 AM59.3°57.9°
05/08 - 06:30 AM57.6°56.5°
05/08 - 06:15 AM56.7°55.2°
05/08 - 06:00 AM56.5°54.7°
05/08 - 05:45 AM57.0°55.3°
05/08 - 05:30 AM57.4°55.8°
05/08 - 05:15 AM57.6°56.0°
05/08 - 05:00 AM57.3°55.3°
05/08 - 04:45 AM57.3°54.9°
05/08 - 04:30 AM57.8°55.4°
05/08 - 04:15 AM58.1°55.6°
05/08 - 04:00 AM58.3°55.1°
05/08 - 03:45 AM58.9°55.4°
05/08 - 03:30 AM59.4°56.0°
05/08 - 03:15 AM59.6°55.8°
05/08 - 03:00 AM59.9°55.6°
05/08 - 02:45 AM60.3°56.1°
05/08 - 02:30 AM60.3°56.0°
05/08 - 02:15 AM60.4°56.1°
05/08 - 02:00 AM60.3°55.9°
05/08 - 01:45 AM60.3°55.6°
05/08 - 01:30 AM61.2°55.7°
05/08 - 01:15 AM62.4°56.0°
05/08 - 01:00 AM63.5°56.3°
05/08 - 12:45 AM64.2°56.4°
05/08 - 12:30 AM64.0°55.7°
05/08 - 12:15 AM63.4°55.6°
05/08 - 12:00 AM63.1°55.9°
05/07 - 11:45 PM63.2°55.9°
05/07 - 11:30 PM63.7°56.2°
05/07 - 11:15 PM64.2°56.1°
05/07 - 11:00 PM63.9°55.6°
05/07 - 10:45 PM64.1°56.3°
05/07 - 10:30 PM65.0°56.8°
05/07 - 10:15 PM64.7°56.4°
05/07 - 10:00 PM63.8°56.6°
05/07 - 09:45 PM64.5°56.9°
05/07 - 09:30 PM65.4°57.3°
05/07 - 09:15 PM66.4°57.4°
05/07 - 09:00 PM67.4°57.1°
05/07 - 08:45 PM68.7°57.6°
05/07 - 08:30 PM69.9°57.4°
05/07 - 08:15 PM71.2°57.3°
05/07 - 08:00 PM72.8°57.6°
05/07 - 07:45 PM74.4°58.0°
05/07 - 07:30 PM76.6°58.9°
05/07 - 07:15 PM78.7°59.5°
05/07 - 07:00 PM80.0°59.3°
05/07 - 06:45 PM81.1°58.9°